User: anonymous   Login
Location: Ditterswind
(50.1692°N, 10.6348°E)
Time: 13:52:26
(UTC+00:00)
Language:

MOZ.5/SAFIR/RUBIN 5/SL-8 - Orbit

View from above orbital plane
View from above orbital plane
View from above satellite
View from above satellite

Ground track
Ground track

The orbit data is extracted from the following two-line orbital elements,

1 28898U 05043G   20218.61982784 +.00000052 +00000-0 +20161-4 0  9996
2 28898 098.0843 344.7460 0019505 192.0123 168.0615 14.60441377410374
Epoch (UTC): 05 August 2020 14:52:33
Eccentricity: 0.0019505
inclination: 98.0843°
perigee height: 678 km
apogee height: 705 km
right ascension of ascending node: 344.7460°
argument of perigee: 192.0123°
revolutions per day: 14.60441377
mean anomaly at epoch: 168.0615°
orbit number at epoch: 41037

The dashed part of the orbit path shows where the satellite is in the earth's shadow,  

DLR